Flag for Brunei Weather past 2 weeks in Bandar Seri Begawan, Brunei

Now
79 °F

Light rain. Partly sunny.


Feels Like: 83 °F
Forecast: 77 / 90 °F
Wind: 6 mph from South

Location: Brunei Airport

Current Time: Sep 15, 2014 at 10:06:56 AM

Latest Report: Sep 15, 2014 at 9:30 AM


Visibility: 5 mi

Pressure: 29.83 "Hg

Humidity: 94%

Dew point: 77 °F

Location of Bandar Seri BegawanLocation

Historic Weather in Bandar Seri Begawan — Graph

°F

Bandar Seri Begawan temperature yesterday

Maximum temperature yesterday: 91 °F (at 11:30 AM)
Minimum temperature yesterday: 77 °F (at 4:00 AM)
Average temperature yesterday: 82 °F

Past Weeks' High & Low Weather Summary

 TemperatureHumidityPressure
High91 °F (Sep 2, 11:30 AM)100% (Sep 3, 6:30 AM)29.95 "Hg (Sep 3, 6:30 AM)
Low73 °F (Sep 7, 3:30 AM)46% (Sep 9, 11:30 AM)29.71 "Hg (Sep 5, 3:30 PM)
Average82 °F80%29.83 "Hg
* Reported Aug 31 9:00 AM — Sep 15 9:00 AM, Bandar Seri Begawan, Weather by CustomWeather, © 2014

Note: Actual official high and low records may vary slightly from our data, if they occured in-between our weather recording intervals... More about our weather records

Advertising

Bandar Seri Begawan weather history for previous 24 hours

 ConditionsComfort  
Time TempWeatherWind HumidityBarometerVisibility
9:00 AM
Sep 15
77 °FLight rain. Partly sunny.7 mph94%29.83 "Hg4 mi
8:30 AM75 °FLight rain. Partly sunny.6 mph100%29.83 "Hg4 mi
8:00 AM75 °FLight rain. Partly sunny.7 mph100%29.83 "Hg5 mi
7:30 AM75 °FLight rain. Partly sunny.7 mph100%29.83 "Hg5 mi
7:00 AM75 °FLight rain. Partly sunny.2 mph100%29.80 "Hg5 mi
6:30 AM73 °FThunderstorms. Partly sunny.5 mph100%29.80 "Hg5 mi
6:00 AM73 °FThunderstorms. Passing clouds.2 mph100%29.80 "Hg4 mi
5:30 AM73 °FThunderstorms. Passing clouds.7 mph100%29.80 "Hg3 mi
5:00 AM79 °FThunderstorms. Passing clouds.5 mph94%29.77 "Hg5 mi
4:30 AM79 °FThunderstorms. Passing clouds.6 mph94%29.74 "Hg5 mi
4:00 AM79 °FPassing clouds.3 mph94%29.77 "Hg5 mi
3:30 AM79 °FPassing clouds.2 mph94%29.74 "Hg5 mi
3:00 AM77 °FSprinkles. Partly cloudy.1 mph100%29.77 "Hg5 mi
2:30 AM77 °FSprinkles. Partly cloudy.3 mph94%29.77 "Hg5 mi
2:00 AM79 °FSprinkles. Passing clouds.3 mph100%29.77 "Hg5 mi
1:30 AM79 °FPassing clouds.3 mph100%29.80 "Hg5 mi
1:00 AM79 °FPassing clouds.2 mph100%29.80 "Hg5 mi
12:30 AM81 °FPassing clouds.2 mph94%29.80 "Hg5 mi
12:00 AM81 °FPassing clouds.3 mph94%29.83 "Hg5 mi
11:30 PM
Sep 14
81 °FPassing clouds.3 mph94%29.83 "Hg5 mi
11:00 PM81 °FPassing clouds.2 mph94%29.83 "Hg5 mi
10:30 PM81 °FPassing clouds.3 mph94%29.83 "Hg5 mi
10:00 PM81 °FPassing clouds.1 mph94%29.80 "Hg5 mi
9:30 PM81 °FPassing clouds.3 mph94%29.80 "Hg5 mi
9:00 PM81 °FPassing clouds.2 mph94%29.80 "Hg5 mi
8:30 PM81 °FPassing clouds.3 mph94%29.80 "Hg5 mi
8:00 PM82 °FPassing clouds.2 mph89%29.77 "Hg5 mi
7:30 PM82 °FPassing clouds.1 mph89%29.80 "Hg5 mi
7:00 PM82 °FPassing clouds.2 mph89%29.77 "Hg5 mi
6:30 PM84 °FPassing clouds.2 mph79%29.77 "Hg5 mi
6:00 PM84 °FPartly sunny.5 mph79%29.77 "Hg5 mi
5:30 PM84 °FPartly sunny.7 mph79%29.74 "Hg5 mi
5:00 PM84 °FBroken clouds.7 mph79%29.74 "Hg5 mi
4:30 PM84 °FBroken clouds.7 mph84%29.74 "Hg5 mi
4:00 PM84 °FBroken clouds.8 mph84%29.74 "Hg5 mi
3:30 PM84 °FPartly sunny.8 mph79%29.74 "Hg5 mi
3:00 PM86 °FBroken clouds.12 mph79%29.74 "Hg5 mi
2:30 PM84 °FThunderstorms. Broken clouds.3 mph79%29.77 "Hg5 mi
2:00 PM82 °FThunderstorms. Broken clouds.3 mph84%29.77 "Hg5 mi
1:30 PM81 °FThunderstorms. Broken clouds.5 mph84%29.77 "Hg5 mi
1:00 PM81 °FThunderstorms. Broken clouds.6 mph84%29.80 "Hg6 mi
12:30 PM84 °FThunderstorms. Broken clouds.6 mph84%29.80 "Hg6 mi
12:00 PM84 °FSprinkles. Broken clouds.10 mph84%29.80 "Hg6 mi
11:30 AM91 °FBroken clouds.5 mph59%29.80 "HgN/A
11:00 AM90 °FPartly sunny.7 mph63%29.80 "HgN/A
10:30 AM88 °FPartly sunny.6 mph66%29.80 "HgN/A
10:00 AM88 °FPartly sunny.7 mph66%29.80 "HgN/A
Weather by CustomWeather, © 2014

See weather overviewHow to use our weather pages